Regional Weather Roundup
Issued by NWS Jackson, KY

Home | Current Version | Previous Version | Graphics & Text | Print | Product List | Glossary On
Versions: 1 2 3 4 5 6 7 8 9 10 11 12 13 14 15 16 17 18 19 20 21 22 23 24 25 26 27
000
ASUS43 KJKL 300010
RWRJKL

EAST KENTUCKY HOURLY WEATHER ROUNDUP
NATIONAL WEATHER SERVICE JACKSON KY
800 PM EDT SUN MAY 29 2016

NOTE: "FAIR" INDICATES FEW OR NO CLOUDS BELOW 12,000 FEET WITH
NO SIGNIFICANT WEATHER AND/OR OBSTRUCTIONS TO VISIBILITY.

* THESE REPORTS ARE NOT UNDER NWS QUALITY CONTROL AND MAY NOT
  REPORT WEATHER SUCH AS PRECIPITATION AND FOG.

KYZ079-080-083-085-087-088-110-112-115-119-120-300100
...EASTERN KENTUCKY...

CITY           SKY/WX    TMP DP  RH WIND       PRES   REMARKS
JACKSON        CLEAR     77  65  66 CALM      30.07S
6HR MIN TEMP:  75; 6HR MAX TEMP:  82;

LONDON         CLEAR     82  61  48 W6        30.06S
6HR MIN TEMP:  81; 6HR MAX TEMP:  85;

SOMERSET*      MOCLDY    81  63  54 CALM      30.05F
MONTICELLO*    CLEAR     82  67  60 W10       30.06F
6HR MIN TEMP:  82; 6HR MAX TEMP:  86;

WILLIAMSBURG*  CLEAR     81  63  54 CALM      30.06F
MIDDLESBORO*   CLEAR     74  66  77 SW3       30.08S
6HR MIN TEMP:  74; 6HR MAX TEMP:  85;

HARLAN APT*      N/A     72  64  78 CALM      30.09F
HAZARD APT*    CLEAR     79  66  65 CALM      30.07S
BLACK MTN*       N/A     64  61  88 VRB1        N/A
PIKE CO APT*     N/A     73  68  86 CALM      30.08F
BIG SANDY APT* CLEAR     76  67  73 CALM      30.07S
6HR MIN TEMP:  66; 6HR MAX TEMP:  78;

MOREHEAD APT*  CLEAR     81  66  61 S3        30.06S
ASHLAND*       CLEAR     81  66  61 SW5       30.01R
$$

KYZ035-036-041-042-044-050-067-078-099-300100
...CENTRAL KENTUCKY...

CITY           SKY/WX    TMP DP  RH WIND       PRES   REMARKS
MT STERLING*   PTCLDY    81  68  65 SW3       30.05S
FLEMING/MASON* PTCLDY   N/A N/A N/A S5        30.03F
DANVILLE*        N/A     81  64  57 CALM      30.05
RICHMOND*      MOSUNNY   81  64  57 CALM      30.04S
LEXINGTON      CLEAR     80  65  59 SW5       30.02F
6HR MIN TEMP:  80; 6HR MAX TEMP:  86;

FRANKFORT      CLEAR     82  65  56 CALM      30.00F
6HR MIN TEMP:  81; 6HR MAX TEMP:  87;

LOUISVILLE     CLOUDY    84  64  50 W9        30.00F
6HR MIN TEMP:  83; 6HR MAX TEMP:  89;

LEBANON*         N/A     81  68  65 CALM      30.03F
GLASGOW*       PTCLDY    83  67  58 CALM      30.02F
BOWLING GREEN  CLOUDY    85  67  54 NW6       30.02F
6HR MIN TEMP:  83; 6HR MAX TEMP:  88;

$$

KYZ091>093-OHZ055-061-077-WVZ005-015-034-035-042-300100
...SOUTHERN OHIO/WEST VIRGINIA...

CITY           SKY/WX    TMP DP  RH WIND       PRES   REMARKS
COVINGTON      CLOUDY    75  68  78 CALM      30.01S THUNDER
COLUMBUS       CLOUDY    74  61  63 SW7       30.00R
DAYTON         MOCLDY    75  64  69 SE9       30.00S THUNDER
WILMINGTON     CLOUDY    72  57  59 NE15G21   30.01S THUNDER
HUNTINGTON       N/A     79  67  66 SE5       30.04S
CHARLESTON     MOCLDY    76  67  73 E5        30.05F
PINEVILLE*       N/A     71  64  80 MISG      30.14F
BECKLEY          N/A     69  57  65 E3        30.13F
BLUEFIELD      CLOUDY    65  58  78 E3        30.15F
LOGAN CO APT*    N/A     75  63  64 CALM      30.08F
$$

VAZ002-007-008-TNZ017-027-036-066-071-300100
...SOUTHWEST VIRGINIA/EAST TENNESSEE...

CITY           SKY/WX    TMP DP  RH WIND       PRES   REMARKS
WISE*            N/A     72  55  56 CALM      30.15S
JONESVILLE*      N/A     73  68  83 CALM      30.10S
ABINGDON*        N/A     72  58  60 CALM      30.11F
BRISTOL        CLOUDY    76  55  48 CALM      30.09R
SEVIERVILLE*   CLEAR     75  66  73 SW3       30.05S
KNOXVILLE      LGT RAIN  73  67  81 E13       30.05R
OAK RIDGE      PTCLDY    79  63  57 E5        30.07R
CROSSVILLE     PTCLDY    79  63  57 N5        30.10S
NASHVILLE      PTCLDY    86  62  44 W7        30.03S
$$

...KEY TO REMARKS...
VSB - VISIBILITY IN MILES
WCI - WIND CHILL INDEX
HX  - HEAT INDEX

$$




USA.gov is the U.S. government's official web portal to all federal, state and local government web resources and services.